UAL531 KDEN-KLAX

Flight info

Callsign UAL531
Flight time 1h 57m
Altitude 30000
Route BAYLR6 TEHRU JASSE Q90 DNERO ANJLL4
Aircraft A21N/M-SDE3FGHIRWY/LB1

Departure

Time 2026-05-06 03:39
Airport Denver International Airport (KDEN)

Arrival

Time 2026-05-06 05:37
Airport Los Angeles International Airport (KLAX)
Time Latitude Longitude Altitude Speed Heading
2026-05-06 03:17 39.85932 -104.67249 5379 ft 0 kts 180°
2026-05-06 03:30 39.85933 -104.67249 5377 ft 0 kts 180°
2026-05-06 03:30 39.85937 -104.67249 5376 ft 2 kts 180°
2026-05-06 03:31 39.85953 -104.67249 5376 ft 2 kts 180°
2026-05-06 03:31 39.85969 -104.67249 5376 ft 2 kts 180°
2026-05-06 03:31 39.85985 -104.67249 5377 ft 2 kts 180°
2026-05-06 03:31 39.86002 -104.67249 5377 ft 2 kts 180°
2026-05-06 03:32 39.86014 -104.67249 5377 ft 0 kts 180°
2026-05-06 03:33 39.86013 -104.67250 5377 ft 0 kts 183°
2026-05-06 03:34 39.86002 -104.67268 5375 ft 7 kts 252°
2026-05-06 03:34 39.86016 -104.67347 5377 ft 10 kts 287°
2026-05-06 03:34 39.86047 -104.67473 5376 ft 18 kts 287°
2026-05-06 03:34 39.86067 -104.67661 5376 ft 24 kts 271°
2026-05-06 03:35 39.86068 -104.67880 5379 ft 24 kts 270°
2026-05-06 03:35 39.86066 -104.68100 5377 ft 23 kts 258°
2026-05-06 03:35 39.86029 -104.68289 5375 ft 23 kts 270°
2026-05-06 03:35 39.85977 -104.68395 5370 ft 11 kts 185°
2026-05-06 03:36 39.85891 -104.68396 5371 ft 14 kts 179°
2026-05-06 03:36 39.85818 -104.68395 5371 ft 17 kts 180°
2026-05-06 03:36 39.85691 -104.68397 5372 ft 19 kts 181°
2026-05-06 03:36 39.85563 -104.68400 5376 ft 18 kts 180°
2026-05-06 03:37 39.85442 -104.68401 5381 ft 18 kts 180°
2026-05-06 03:37 39.85315 -104.68402 5378 ft 19 kts 180°
2026-05-06 03:37 39.85207 -104.68457 5378 ft 13 kts 258°
2026-05-06 03:37 39.85205 -104.68588 5375 ft 17 kts 267°
2026-05-06 03:38 39.85201 -104.68769 5365 ft 23 kts 269°
2026-05-06 03:38 39.85198 -104.69010 5355 ft 32 kts 269°
2026-05-06 03:38 39.85199 -104.69332 5343 ft 37 kts 271°
2026-05-06 03:38 39.85215 -104.69623 5338 ft 21 kts 303°
2026-05-06 03:39 39.85412 -104.69655 5340 ft 55 kts
2026-05-06 03:39 39.86025 -104.69637 5338 ft 119 kts 358°
2026-05-06 03:39 39.87037 -104.69637 5347 ft 170 kts 360°
2026-05-06 03:39 39.88209 -104.69634 6083 ft 168 kts 356°
2026-05-06 03:40 39.89269 -104.70303 6684 ft 182 kts 309°
2026-05-06 03:40 39.89626 -104.71852 7228 ft 188 kts 261°
2026-05-06 03:40 39.89041 -104.73425 7628 ft 202 kts 230°
2026-05-06 03:40 39.88114 -104.74860 8065 ft 216 kts 226°
2026-05-06 03:41 39.87045 -104.76339 8360 ft 230 kts 223°
2026-05-06 03:41 39.85897 -104.77892 8495 ft 250 kts 225°
2026-05-06 03:41 39.84678 -104.79662 8654 ft 273 kts 227°
2026-05-06 03:41 39.83403 -104.81571 9137 ft 283 kts 227°
2026-05-06 03:42 39.82112 -104.83523 9814 ft 285 kts 227°
2026-05-06 03:42 39.80805 -104.85498 10268 ft 296 kts 228°
2026-05-06 03:42 39.79412 -104.87594 10401 ft 317 kts 228°
2026-05-06 03:42 39.77954 -104.89854 10640 ft 333 kts 234°
2026-05-06 03:43 39.76984 -104.92600 11158 ft 338 kts 251°
2026-05-06 03:43 39.76271 -104.95524 11796 ft 339 kts 254°
2026-05-06 03:43 39.75642 -104.98439 12468 ft 339 kts 255°
2026-05-06 03:43 39.75034 -105.01400 13194 ft 339 kts 256°
2026-05-06 03:44 39.74266 -105.04338 13895 ft 340 kts 250°
2026-05-06 03:44 39.73392 -105.07148 14494 ft 340 kts 249°
2026-05-06 03:44 39.72478 -105.09986 15080 ft 341 kts 249°
2026-05-06 03:44 39.71651 -105.12517 15596 ft 342 kts 249°
2026-05-06 03:45 39.70713 -105.15362 16162 ft 343 kts 249°
2026-05-06 03:45 39.69769 -105.18213 16749 ft 344 kts 249°
2026-05-06 03:45 39.68821 -105.21079 17304 ft 346 kts 249°
2026-05-06 03:45 39.67870 -105.23953 17834 ft 347 kts 249°
2026-05-06 03:46 39.66918 -105.26844 18375 ft 349 kts 249°
2026-05-06 03:46 39.65949 -105.29787 18816 ft 351 kts 249°
2026-05-06 03:46 39.64983 -105.32718 19250 ft 355 kts 249°
2026-05-06 03:46 39.64007 -105.35673 19700 ft 358 kts 249°
2026-05-06 03:47 39.63025 -105.38650 20124 ft 360 kts 249°
2026-05-06 03:47 39.62032 -105.41657 20600 ft 363 kts 249°
2026-05-06 03:47 39.61035 -105.44677 21049 ft 366 kts 249°
2026-05-06 03:47 39.60018 -105.47759 21209 ft 377 kts 249°
2026-05-06 03:48 39.58974 -105.50926 21294 ft 386 kts 249°
2026-05-06 03:48 39.57904 -105.54167 21425 ft 396 kts 249°
2026-05-06 03:48 39.56804 -105.57481 21554 ft 404 kts 249°
2026-05-06 03:48 39.55674 -105.60864 21689 ft 412 kts 249°
2026-05-06 03:49 39.54562 -105.64330 21755 ft 420 kts 250°
2026-05-06 03:49 39.53524 -105.67907 21907 ft 427 kts 252°
2026-05-06 03:49 39.52548 -105.71504 22247 ft 429 kts 253°
2026-05-06 03:49 39.51580 -105.75169 22680 ft 429 kts 253°
2026-05-06 03:50 39.50612 -105.78827 23064 ft 429 kts 253°
2026-05-06 03:50 39.49627 -105.82480 23487 ft 429 kts 252°
2026-05-06 03:50 39.48629 -105.86116 23870 ft 428 kts 252°
2026-05-06 03:50 39.47620 -105.89741 24241 ft 428 kts 252°
2026-05-06 03:51 39.46607 -105.93354 24632 ft 427 kts 252°
2026-05-06 03:51 39.45592 -105.96963 25007 ft 426 kts 252°
2026-05-06 03:51 39.44578 -106.00569 25411 ft 426 kts 252°
2026-05-06 03:51 39.43566 -106.04173 25738 ft 427 kts 252°
2026-05-06 03:52 39.42552 -106.07791 26008 ft 429 kts 252°
2026-05-06 03:52 39.41526 -106.11444 26134 ft 435 kts 252°
2026-05-06 03:52 39.40481 -106.15153 26266 ft 441 kts 252°
2026-05-06 03:52 39.39423 -106.18900 26389 ft 447 kts 252°
2026-05-06 03:53 39.38354 -106.22687 26578 ft 450 kts 252°
2026-05-06 03:53 39.37278 -106.26492 27044 ft 450 kts 252°
2026-05-06 03:53 39.36199 -106.30298 27376 ft 450 kts 252°
2026-05-06 03:53 39.35121 -106.34099 27711 ft 450 kts 252°
2026-05-06 03:54 39.34042 -106.37901 27968 ft 451 kts 252°
2026-05-06 03:54 39.32959 -106.41715 28227 ft 452 kts 252°
2026-05-06 03:54 39.31875 -106.45523 28521 ft 452 kts 252°
2026-05-06 03:54 39.30788 -106.49334 28841 ft 452 kts 252°
2026-05-06 03:55 39.29699 -106.53146 29151 ft 451 kts 253°
2026-05-06 03:55 39.28612 -106.56947 29448 ft 451 kts 253°
2026-05-06 03:55 39.27523 -106.60743 29737 ft 451 kts 253°
2026-05-06 03:55 39.26429 -106.64557 29875 ft 453 kts 252°
2026-05-06 03:56 39.24232 -106.72196 29934 ft 456 kts 252°
2026-05-06 03:56 39.22005 -106.79920 30001 ft 460 kts 252°
2026-05-06 03:57 39.19776 -106.87654 29945 ft 461 kts 252°
2026-05-06 03:57 39.17546 -106.95397 30002 ft 460 kts 252°
2026-05-06 03:58 39.15323 -107.03131 30039 ft 460 kts 252°
2026-05-06 03:58 39.13041 -107.10875 30073 ft 464 kts 252°
2026-05-06 03:59 39.10706 -107.18632 30112 ft 464 kts 252°
2026-05-06 03:59 39.08376 -107.26394 30150 ft 464 kts 252°
2026-05-06 04:00 39.06049 -107.34141 30185 ft 464 kts 252°
2026-05-06 04:00 39.03719 -107.41898 30224 ft 465 kts 252°
2026-05-06 04:01 39.01357 -107.49671 30260 ft 467 kts 252°
2026-05-06 04:01 38.98998 -107.57456 30308 ft 467 kts 252°
2026-05-06 04:02 38.96646 -107.65241 30342 ft 467 kts 252°
2026-05-06 04:02 38.94305 -107.73010 30390 ft 466 kts 252°
2026-05-06 04:03 38.91958 -107.80804 30415 ft 469 kts 252°
2026-05-06 04:03 38.89605 -107.88628 30523 ft 469 kts 252°
2026-05-06 04:04 38.87256 -107.96441 30597 ft 469 kts 252°
2026-05-06 04:04 38.84908 -108.04264 30658 ft 469 kts 252°
2026-05-06 04:05 38.82572 -108.12077 30563 ft 469 kts 253°
2026-05-06 04:05 38.81403 -108.15982 30332 ft 470 kts 252°
2026-05-06 04:05 38.80252 -108.19926 30101 ft 473 kts 253°
2026-05-06 04:06 38.79100 -108.23883 29877 ft 474 kts 253°
2026-05-06 04:06 38.77945 -108.27848 29821 ft 474 kts 253°
2026-05-06 04:06 38.75633 -108.35786 29800 ft 475 kts 253°
2026-05-06 04:07 38.73323 -108.43733 29768 ft 476 kts 253°
2026-05-06 04:07 38.70987 -108.51648 29746 ft 478 kts 253°
2026-05-06 04:08 38.68633 -108.59619 29744 ft 479 kts 253°
2026-05-06 04:08 38.66661 -108.66300 29747 ft 479 kts 253°
2026-05-06 04:09 38.64309 -108.74272 29751 ft 479 kts 253°
2026-05-06 04:09 38.61953 -108.82255 29734 ft 479 kts 253°
2026-05-06 04:10 38.59597 -108.90225 29733 ft 480 kts 253°
2026-05-06 04:10 38.57237 -108.98225 29739 ft 481 kts 253°
2026-05-06 04:11 38.54878 -109.06230 29736 ft 481 kts 253°
2026-05-06 04:11 38.52520 -109.14240 29734 ft 482 kts 253°
2026-05-06 04:12 38.50150 -109.22271 29730 ft 483 kts 253°
2026-05-06 04:12 38.47781 -109.30318 29736 ft 484 kts 253°
2026-05-06 04:13 38.45414 -109.38362 29746 ft 484 kts 253°
2026-05-06 04:13 38.43049 -109.46408 29731 ft 484 kts 253°
2026-05-06 04:14 38.40683 -109.54466 29710 ft 486 kts 253°
2026-05-06 04:14 38.38316 -109.62546 29714 ft 487 kts 253°
2026-05-06 04:15 38.35930 -109.70642 29712 ft 489 kts 250°
2026-05-06 04:15 38.34250 -109.74428 29714 ft 495 kts 237°
2026-05-06 04:15 38.32187 -109.77951 29727 ft 496 kts 236°
2026-05-06 04:16 38.28010 -109.84964 29703 ft 498 kts 235°
2026-05-06 04:16 38.23792 -109.91995 29703 ft 500 kts 235°
2026-05-06 04:17 38.19584 -109.99050 29713 ft 501 kts 235°
2026-05-06 04:17 38.15371 -110.06122 29718 ft 502 kts 235°
2026-05-06 04:18 38.11156 -110.13186 29717 ft 502 kts 235°
2026-05-06 04:18 38.06915 -110.20258 29704 ft 503 kts 235°
2026-05-06 04:19 38.02654 -110.27335 29709 ft 505 kts 235°
2026-05-06 04:19 37.98387 -110.34410 29705 ft 505 kts 234°
2026-05-06 04:20 37.94109 -110.41493 29700 ft 506 kts 234°
2026-05-06 04:20 37.89823 -110.48579 29695 ft 507 kts 234°
2026-05-06 04:21 37.85526 -110.55666 29690 ft 508 kts 234°
2026-05-06 04:21 37.81214 -110.62754 29686 ft 508 kts 234°
2026-05-06 04:22 37.76913 -110.69796 29688 ft 509 kts 234°
2026-05-06 04:23 37.70422 -110.80418 29697 ft 509 kts 234°
2026-05-06 04:23 37.66081 -110.87513 29677 ft 511 kts 233°
2026-05-06 04:24 37.61721 -110.94618 29681 ft 513 kts 233°
2026-05-06 04:24 37.57332 -111.01734 29693 ft 515 kts 233°
2026-05-06 04:25 37.52927 -111.08856 29697 ft 515 kts 233°
2026-05-06 04:25 37.48501 -111.16038 29708 ft 516 kts 233°
2026-05-06 04:26 37.44087 -111.23187 29711 ft 517 kts 233°
2026-05-06 04:26 37.39688 -111.30287 29721 ft 517 kts 233°
2026-05-06 04:27 37.35248 -111.37415 29732 ft 518 kts 233°
2026-05-06 04:27 37.30795 -111.44552 29740 ft 519 kts 233°
2026-05-06 04:28 37.26345 -111.51677 29742 ft 519 kts 233°
2026-05-06 04:28 37.21881 -111.58820 29744 ft 519 kts 233°
2026-05-06 04:29 37.17422 -111.65940 29751 ft 519 kts 232°
2026-05-06 04:29 37.12944 -111.73060 29757 ft 519 kts 232°
2026-05-06 04:30 37.08456 -111.80166 29773 ft 520 kts 232°
2026-05-06 04:30 37.03970 -111.87268 29802 ft 520 kts 232°
2026-05-06 04:31 36.99493 -111.94365 29825 ft 520 kts 232°
2026-05-06 04:31 36.95002 -112.01451 29827 ft 520 kts 232°
2026-05-06 04:32 36.90529 -112.08560 29861 ft 520 kts 233°
2026-05-06 04:32 36.86037 -112.15639 29844 ft 520 kts 232°
2026-05-06 04:33 36.81489 -112.22738 29868 ft 520 kts 232°
2026-05-06 04:33 36.76968 -112.29784 29883 ft 520 kts 232°
2026-05-06 04:34 36.72469 -112.36778 29901 ft 520 kts 232°
2026-05-06 04:34 36.67942 -112.43827 29899 ft 520 kts 232°
2026-05-06 04:35 36.63408 -112.50877 29891 ft 521 kts 232°
2026-05-06 04:35 36.58857 -112.57934 29887 ft 522 kts 232°
2026-05-06 04:36 36.54306 -112.64976 29880 ft 523 kts 232°
2026-05-06 04:36 36.49742 -112.72029 29889 ft 523 kts 232°
2026-05-06 04:37 36.45173 -112.79070 29893 ft 524 kts 232°
2026-05-06 04:37 36.40586 -112.86119 29876 ft 525 kts 232°
2026-05-06 04:38 36.35989 -112.93178 29886 ft 527 kts 231°
2026-05-06 04:38 36.31361 -113.00257 29875 ft 528 kts 231°
2026-05-06 04:39 36.26728 -113.07340 29880 ft 529 kts 231°
2026-05-06 04:39 36.22874 -113.13241 29861 ft 530 kts 231°
2026-05-06 04:40 36.18222 -113.20339 29872 ft 530 kts 231°
2026-05-06 04:40 36.13559 -113.27421 29874 ft 531 kts 231°
2026-05-06 04:41 36.08890 -113.34504 29878 ft 531 kts 231°
2026-05-06 04:41 36.04208 -113.41581 29870 ft 531 kts 231°
2026-05-06 04:42 35.99523 -113.48652 29865 ft 532 kts 231°
2026-05-06 04:42 35.94819 -113.55743 29858 ft 533 kts 231°
2026-05-06 04:43 35.90112 -113.62817 29847 ft 533 kts 231°
2026-05-06 04:43 35.85406 -113.69874 29838 ft 532 kts 231°
2026-05-06 04:44 35.80689 -113.76941 29833 ft 534 kts 231°
2026-05-06 04:44 35.75953 -113.84029 29861 ft 540 kts 231°
2026-05-06 04:45 35.71136 -113.91223 29854 ft 547 kts 230°
2026-05-06 04:45 35.66276 -113.98449 29850 ft 547 kts 230°
2026-05-06 04:46 35.61416 -114.05654 29846 ft 547 kts 230°
2026-05-06 04:46 35.56548 -114.12863 29863 ft 548 kts 230°
2026-05-06 04:47 35.51674 -114.20073 29863 ft 548 kts 230°
2026-05-06 04:47 35.46801 -114.27273 29879 ft 548 kts 230°
2026-05-06 04:48 35.41921 -114.34457 29877 ft 548 kts 230°
2026-05-06 04:48 35.37030 -114.41645 29889 ft 548 kts 230°
2026-05-06 04:49 35.32127 -114.48831 29878 ft 548 kts 230°
2026-05-06 04:49 35.27232 -114.55991 29886 ft 548 kts 230°
2026-05-06 04:50 35.22328 -114.63148 29889 ft 549 kts 230°
2026-05-06 04:50 35.17427 -114.70302 29906 ft 548 kts 230°
2026-05-06 04:51 35.12517 -114.77449 29914 ft 548 kts 230°
2026-05-06 04:51 35.07627 -114.84538 29911 ft 548 kts 230°
2026-05-06 04:52 35.02943 -114.91888 29926 ft 548 kts 240°
2026-05-06 04:52 34.99369 -115.00071 29911 ft 547 kts 244°
2026-05-06 04:53 34.95821 -115.08288 29902 ft 548 kts 243°
2026-05-06 04:53 34.92249 -115.16507 29912 ft 548 kts 243°
2026-05-06 04:54 34.88661 -115.24730 29912 ft 549 kts 243°
2026-05-06 04:54 34.85083 -115.32913 29912 ft 537 kts 243°
2026-05-06 04:54 34.83351 -115.36861 29920 ft 522 kts 243°
2026-05-06 04:55 34.81648 -115.40739 29926 ft 518 kts 243°
2026-05-06 04:55 34.78305 -115.48485 29928 ft 516 kts 245°
2026-05-06 04:56 34.75331 -115.56401 29934 ft 515 kts 249°
2026-05-06 04:56 34.72539 -115.64412 29922 ft 514 kts 249°
2026-05-06 04:57 34.69682 -115.72381 29929 ft 515 kts 248°
2026-05-06 04:57 34.66730 -115.80308 29930 ft 515 kts 247°
2026-05-06 04:58 34.63758 -115.88217 29921 ft 515 kts 247°
2026-05-06 04:58 34.60817 -115.96140 29913 ft 515 kts 248°
2026-05-06 04:59 34.57901 -116.04078 29928 ft 515 kts 248°
2026-05-06 04:59 34.54978 -116.12022 29933 ft 515 kts 248°
2026-05-06 05:00 34.52046 -116.19951 29958 ft 515 kts 247°
2026-05-06 05:00 34.50569 -116.23921 29572 ft 516 kts 247°
2026-05-06 05:00 34.49094 -116.27882 29033 ft 513 kts 247°
2026-05-06 05:00 34.47625 -116.31821 28495 ft 511 kts 247°
2026-05-06 05:01 34.46161 -116.35743 27962 ft 509 kts 247°
2026-05-06 05:01 34.44702 -116.39643 27445 ft 506 kts 246°
2026-05-06 05:01 34.43251 -116.43517 26926 ft 503 kts 246°
2026-05-06 05:01 34.41805 -116.47371 26475 ft 501 kts 246°
2026-05-06 05:02 34.40334 -116.51196 26030 ft 499 kts 245°
2026-05-06 05:02 34.38814 -116.54963 25576 ft 497 kts 244°
2026-05-06 05:02 34.37257 -116.58694 25105 ft 495 kts 244°
2026-05-06 05:02 34.35705 -116.62353 24646 ft 493 kts 244°
2026-05-06 05:03 34.34154 -116.66012 24356 ft 480 kts 244°
2026-05-06 05:03 34.32690 -116.69505 24219 ft 450 kts 244°
2026-05-06 05:03 34.31327 -116.72838 24096 ft 423 kts 245°
2026-05-06 05:03 34.30076 -116.75957 23926 ft 401 kts 245°
2026-05-06 05:04 34.28887 -116.78950 23423 ft 390 kts 245°
2026-05-06 05:04 34.27740 -116.81840 22729 ft 382 kts 245°
2026-05-06 05:04 34.26596 -116.84712 21992 ft 376 kts 245°
2026-05-06 05:04 34.25465 -116.87531 21292 ft 370 kts 245°
2026-05-06 05:05 34.24345 -116.90306 20637 ft 364 kts 245°
2026-05-06 05:05 34.23231 -116.93051 20232 ft 363 kts 245°
2026-05-06 05:05 34.22122 -116.95779 19831 ft 361 kts 245°
2026-05-06 05:05 34.21062 -116.98516 19435 ft 359 kts 251°
2026-05-06 05:06 34.20276 -117.01360 19049 ft 355 kts 254°
2026-05-06 05:06 34.19518 -117.04186 18659 ft 353 kts 254°
2026-05-06 05:06 34.18762 -117.06992 18255 ft 350 kts 254°
2026-05-06 05:06 34.17997 -117.09820 17803 ft 347 kts 254°
2026-05-06 05:07 34.17251 -117.12577 17375 ft 345 kts 254°
2026-05-06 05:07 34.16509 -117.15313 16985 ft 341 kts 254°
2026-05-06 05:07 34.15773 -117.18018 16605 ft 338 kts 254°
2026-05-06 05:07 34.15037 -117.20698 16319 ft 335 kts 254°
2026-05-06 05:08 34.14303 -117.23362 16038 ft 332 kts 254°
2026-05-06 05:08 34.13572 -117.26008 16018 ft 333 kts 254°
2026-05-06 05:08 34.12838 -117.28664 16018 ft 334 kts 254°
2026-05-06 05:08 34.12102 -117.31327 16018 ft 334 kts 254°
2026-05-06 05:09 34.11367 -117.33983 16018 ft 334 kts 254°
2026-05-06 05:09 34.10633 -117.36638 16014 ft 334 kts 254°
2026-05-06 05:09 34.09916 -117.39305 16010 ft 334 kts 255°
2026-05-06 05:09 34.09236 -117.41982 15650 ft 334 kts 256°
2026-05-06 05:10 34.08573 -117.44667 14771 ft 332 kts 256°
2026-05-06 05:10 34.07923 -117.47325 14062 ft 326 kts 256°
2026-05-06 05:10 34.07270 -117.49907 13315 ft 320 kts 251°
2026-05-06 05:10 34.06414 -117.52374 12474 ft 318 kts 249°
2026-05-06 05:11 34.05535 -117.54820 11718 ft 320 kts 248°
2026-05-06 05:11 34.04652 -117.57275 11347 ft 318 kts 248°
2026-05-06 05:11 34.04068 -117.58895 11096 ft 317 kts 248°
2026-05-06 05:11 34.03189 -117.61332 10717 ft 316 kts 248°
2026-05-06 05:12 34.02311 -117.63768 10306 ft 317 kts 248°
2026-05-06 05:12 34.01440 -117.66188 10174 ft 315 kts 248°
2026-05-06 05:12 34.00700 -117.68676 10031 ft 314 kts 259°
2026-05-06 05:12 34.00380 -117.71282 9697 ft 314 kts 266°
2026-05-06 05:13 34.00131 -117.73880 9349 ft 310 kts 265°
2026-05-06 05:13 33.99886 -117.76454 9002 ft 307 kts 265°
2026-05-06 05:13 33.99640 -117.78987 8678 ft 303 kts 265°
2026-05-06 05:13 33.99395 -117.81492 8353 ft 299 kts 265°
2026-05-06 05:14 33.99153 -117.83977 8035 ft 296 kts 265°
2026-05-06 05:14 33.98915 -117.86429 7717 ft 292 kts 264°
2026-05-06 05:14 33.98681 -117.88846 7405 ft 289 kts 264°
2026-05-06 05:14 33.98450 -117.91242 7098 ft 286 kts 264°
2026-05-06 05:15 33.98220 -117.93607 6788 ft 283 kts 264°
2026-05-06 05:15 33.97982 -117.95948 6503 ft 279 kts 263°
2026-05-06 05:15 33.97745 -117.98251 6187 ft 276 kts 263°
2026-05-06 05:15 33.97519 -118.00524 5886 ft 272 kts 263°
2026-05-06 05:16 33.97298 -118.02773 5594 ft 268 kts 263°
2026-05-06 05:16 33.97078 -118.04997 5309 ft 265 kts 263°
2026-05-06 05:16 33.96860 -118.07195 5120 ft 266 kts 263°
2026-05-06 05:16 33.96642 -118.09395 4804 ft 264 kts 263°
2026-05-06 05:17 33.96424 -118.11582 4450 ft 262 kts 263°
2026-05-06 05:17 33.96208 -118.13750 4119 ft 256 kts 263°
2026-05-06 05:17 33.96002 -118.15813 3812 ft 238 kts 263°
2026-05-06 05:17 33.95809 -118.17736 3489 ft 223 kts 263°
2026-05-06 05:18 33.95630 -118.19525 3213 ft 206 kts 263°
2026-05-06 05:18 33.95467 -118.21154 2962 ft 184 kts 263°
2026-05-06 05:18 33.95324 -118.22575 2714 ft 161 kts 263°
2026-05-06 05:18 33.95193 -118.23873 2499 ft 152 kts 262°
2026-05-06 05:19 33.95067 -118.25128 2296 ft 150 kts 262°
2026-05-06 05:19 33.94942 -118.26366 2097 ft 148 kts 262°
2026-05-06 05:19 33.94818 -118.27599 1897 ft 148 kts 262°
2026-05-06 05:19 33.94693 -118.28832 1703 ft 148 kts 262°
2026-05-06 05:20 33.94569 -118.30058 1501 ft 147 kts 262°
2026-05-06 05:20 33.94446 -118.31278 1307 ft 146 kts 261°
2026-05-06 05:20 33.94322 -118.32496 1106 ft 146 kts 262°
2026-05-06 05:20 33.94196 -118.33713 901 ft 146 kts 261°
2026-05-06 05:21 33.94053 -118.34919 696 ft 145 kts 263°
2026-05-06 05:21 33.93947 -118.36131 532 ft 145 kts 264°
2026-05-06 05:21 33.93835 -118.37342 317 ft 144 kts 263°
2026-05-06 05:21 33.93705 -118.38540 126 ft 144 kts 261°
2026-05-06 05:22 33.93594 -118.39685 174 ft 146 kts 263°
2026-05-06 05:22 33.93457 -118.40990 641 ft 166 kts 262°
2026-05-06 05:22 33.93300 -118.42428 1371 ft 177 kts 263°
2026-05-06 05:22 33.93139 -118.43897 2345 ft 182 kts 263°
2026-05-06 05:23 33.92984 -118.45506 2942 ft 203 kts 264°
2026-05-06 05:23 33.92800 -118.47265 3413 ft 218 kts 262°
2026-05-06 05:23 33.92332 -118.51062 4474 ft 234 kts 253°
2026-05-06 05:24 33.91509 -118.52763 4902 ft 239 kts 223°
2026-05-06 05:24 33.90108 -118.53747 4990 ft 238 kts 197°
2026-05-06 05:24 33.88499 -118.54229 5004 ft 239 kts 192°
2026-05-06 05:24 33.86869 -118.54627 5006 ft 239 kts 191°
2026-05-06 05:25 33.85238 -118.55011 5005 ft 239 kts 191°
2026-05-06 05:25 33.83590 -118.55170 5003 ft 238 kts 169°
2026-05-06 05:25 33.82095 -118.54350 5006 ft 245 kts 137°
2026-05-06 05:25 33.81085 -118.52593 4989 ft 265 kts 109°
2026-05-06 05:26 33.80873 -118.50361 4989 ft 269 kts 85°
2026-05-06 05:26 33.81088 -118.48145 4982 ft 271 kts 82°
2026-05-06 05:26 33.81360 -118.45900 4983 ft 271 kts 81°
2026-05-06 05:26 33.81640 -118.43660 4985 ft 271 kts 81°
2026-05-06 05:27 33.81922 -118.41421 4982 ft 271 kts 81°
2026-05-06 05:27 33.82206 -118.39180 4983 ft 271 kts 81°
2026-05-06 05:27 33.82490 -118.36939 4983 ft 271 kts 81°
2026-05-06 05:27 33.82776 -118.34658 4984 ft 273 kts 81°
2026-05-06 05:28 33.83057 -118.32397 4983 ft 273 kts 81°
2026-05-06 05:28 33.83339 -118.30135 4977 ft 273 kts 81°
2026-05-06 05:28 33.83622 -118.27874 4977 ft 274 kts 81°
2026-05-06 05:28 33.83904 -118.25612 4977 ft 273 kts 81°
2026-05-06 05:29 33.84187 -118.23352 5001 ft 273 kts 81°
2026-05-06 05:29 33.84470 -118.21088 5000 ft 274 kts 81°
2026-05-06 05:29 33.84753 -118.18821 5001 ft 274 kts 81°
2026-05-06 05:29 33.85036 -118.16560 5000 ft 273 kts 81°
2026-05-06 05:30 33.85319 -118.14297 5001 ft 274 kts 81°
2026-05-06 05:30 33.85603 -118.12036 4983 ft 273 kts 81°
2026-05-06 05:30 33.86102 -118.09845 4918 ft 271 kts 61°
2026-05-06 05:30 33.87310 -118.08150 4579 ft 267 kts 33°
2026-05-06 05:31 33.89017 -118.07363 4206 ft 264 kts
2026-05-06 05:31 33.90821 -118.07467 3993 ft 255 kts 351°
2026-05-06 05:31 33.92525 -118.07759 3993 ft 239 kts 350°
2026-05-06 05:31 33.94073 -118.08172 3996 ft 218 kts 333°
2026-05-06 05:32 33.95251 -118.09173 3991 ft 202 kts 312°
2026-05-06 05:32 33.96016 -118.10565 3995 ft 199 kts 291°
2026-05-06 05:32 33.96319 -118.12182 3978 ft 199 kts 271°
2026-05-06 05:32 33.96199 -118.13841 3987 ft 200 kts 263°
2026-05-06 05:33 33.96032 -118.15507 3812 ft 204 kts 263°
2026-05-06 05:33 33.95860 -118.17222 3562 ft 206 kts 263°
2026-05-06 05:33 33.95688 -118.18939 3297 ft 207 kts 263°
2026-05-06 05:33 33.95516 -118.20652 3037 ft 206 kts 263°
2026-05-06 05:34 33.95344 -118.22368 2763 ft 208 kts 263°
2026-05-06 05:34 33.95164 -118.24158 2461 ft 218 kts 262°
2026-05-06 05:34 33.94981 -118.25977 2155 ft 214 kts 262°
2026-05-06 05:34 33.94816 -118.27620 1905 ft 180 kts 262°
2026-05-06 05:35 33.94676 -118.29012 1658 ft 158 kts 261°
2026-05-06 05:35 33.94546 -118.30291 1451 ft 150 kts 262°
2026-05-06 05:35 33.94420 -118.31526 1244 ft 147 kts 262°
2026-05-06 05:35 33.94301 -118.32743 1060 ft 146 kts 262°
2026-05-06 05:36 33.94170 -118.33955 844 ft 145 kts 261°
2026-05-06 05:36 33.94046 -118.35158 708 ft 145 kts 262°
2026-05-06 05:36 33.93922 -118.36363 471 ft 144 kts 263°
2026-05-06 05:36 33.93809 -118.37558 278 ft 143 kts 263°
2026-05-06 05:37 33.93688 -118.38747 113 ft 142 kts 262°
2026-05-06 05:37 33.93581 -118.39784 97 ft 102 kts 263°
2026-05-06 05:37 33.93532 -118.40307 94 ft 41 kts 265°
2026-05-06 05:37 33.93563 -118.40544 96 ft 21 kts 290°
2026-05-06 05:38 33.93584 -118.40608 94 ft 1 kts 292°
2026-05-06 05:38 33.93587 -118.40617 94 ft 0 kts 289°
2026-05-06 05:38 33.93591 -118.40630 94 ft 3 kts 288°
2026-05-06 05:39 33.93598 -118.40665 96 ft 5 kts 281°
2026-05-06 05:39 33.93598 -118.40718 94 ft 9 kts 266°
2026-05-06 05:39 33.93605 -118.40844 96 ft 21 kts 289°
2026-05-06 05:39 33.93731 -118.40906 94 ft 21 kts 354°
2026-05-06 05:40 33.93788 -118.40862 95 ft 7 kts 69°
2026-05-06 05:40 33.93797 -118.40797 97 ft 9 kts 82°
2026-05-06 05:40 33.93808 -118.40689 94 ft 22 kts 85°
2026-05-06 05:40 33.93830 -118.40462 96 ft 29 kts 83°
2026-05-06 05:41 33.93856 -118.40223 97 ft 29 kts 82°
2026-05-06 05:41 33.93882 -118.40007 98 ft 22 kts 81°
2026-05-06 05:41 33.93907 -118.39830 95 ft 7 kts 80°
2026-05-06 05:41 33.93943 -118.39816 95 ft 7 kts
2026-05-06 05:42 33.94003 -118.39819 93 ft 10 kts 354°
2026-05-06 05:42 33.94076 -118.39826 94 ft 11 kts 356°
2026-05-06 05:42 33.94128 -118.39831 94 ft 11 kts 354°
2026-05-06 05:42 33.94196 -118.39839 95 ft 9 kts 354°
2026-05-06 05:43 33.94250 -118.39844 94 ft 6 kts
2026-05-06 05:43 33.94272 -118.39813 93 ft 4 kts 61°
2026-05-06 05:43 33.94275 -118.39806 93 ft 0 kts 63°
2026-05-06 05:43 33.94277 -118.39801 93 ft 1 kts 63°
2026-05-06 05:44 33.94278 -118.39799 93 ft 0 kts 63°